Time,TemperatureF,DewpointF,PressureIn,WindDirection,WindDirectionDegrees,WindSpeedMPH,WindSpeedGustMPH,Humidity,HourlyPrecipIn,Conditions,Clouds,dailyrainin,SolarRadiationWatts/m^2,SoftwareType,DateUTC
2013-08-31 00:01:00,90.0,72.0,-100.00,SW,231,0.0,3.0,55,0.00,,,0.00,0.000000,,2013-08-31 07:01:00,
2013-08-31 00:12:00,90.0,72.0,-100.00,SW,231,0.0,3.0,55,0.00,,,0.00,0.000000,,2013-08-31 07:12:00,
2013-08-31 00:22:00,90.0,72.0,-100.00,SW,231,0.0,3.0,55,0.00,,,0.00,0.000000,,2013-08-31 07:22:00,
2013-08-31 00:52:00,89.0,72.0,-100.00,SE,135,0.0,0.0,57,0.00,,,0.00,0.000000,,2013-08-31 07:52:00,
2013-08-31 01:03:00,89.0,72.0,-100.00,SE,135,0.0,0.0,57,0.00,,,0.00,0.000000,,2013-08-31 08:03:00,
2013-08-31 01:12:00,89.0,72.0,-100.00,SE,135,0.0,0.0,57,0.00,,,0.00,0.000000,,2013-08-31 08:12:00,
2013-08-31 01:22:00,89.0,72.0,-100.00,SE,135,0.0,0.0,57,0.00,,,0.00,0.000000,,2013-08-31 08:22:00,
2013-08-31 01:52:00,88.0,71.0,-100.00,South,175,0.0,4.0,57,0.00,,,0.00,0.000000,,2013-08-31 08:52:00,
2013-08-31 02:02:00,88.0,71.0,-100.00,South,175,0.0,4.0,57,0.00,,,0.00,0.000000,,2013-08-31 09:02:00,
2013-08-31 02:12:00,88.0,71.0,-100.00,South,175,0.0,4.0,57,0.00,,,0.00,0.000000,,2013-08-31 09:12:00,
2013-08-31 02:23:00,88.0,71.0,-100.00,South,175,0.0,4.0,57,0.00,,,0.00,0.000000,,2013-08-31 09:23:00,
2013-08-31 02:53:00,86.0,71.0,-100.00,NW,309,0.0,4.0,61,0.00,,,-99.99,0.000000,,2013-08-31 09:53:00,
2013-08-31 03:03:00,86.0,71.0,-100.00,NW,309,0.0,4.0,61,0.00,,,-99.99,0.000000,,2013-08-31 10:03:00,
2013-08-31 03:12:00,86.0,71.0,-100.00,NW,309,0.0,4.0,61,0.00,,,-99.99,0.000000,,2013-08-31 10:12:00,
2013-08-31 03:23:00,86.0,71.0,-100.00,NW,309,0.0,4.0,61,0.00,,,-99.99,0.000000,,2013-08-31 10:23:00,
2013-08-31 03:53:00,86.0,71.0,-100.00,NNE,12,0.0,2.0,61,0.00,,,0.00,0.000000,,2013-08-31 10:53:00,
2013-08-31 04:02:00,86.0,71.0,-100.00,NNE,12,0.0,2.0,61,0.00,,,0.00,0.000000,,2013-08-31 11:02:00,
2013-08-31 04:12:00,86.0,71.0,-100.00,NNE,12,0.0,2.0,61,0.00,,,0.00,0.000000,,2013-08-31 11:12:00,
2013-08-31 04:21:00,86.0,71.0,-100.00,NNE,12,0.0,2.0,61,0.00,,,0.00,0.000000,,2013-08-31 11:21:00,
2013-08-31 04:52:00,87.0,74.0,-100.00,South,174,0.0,0.0,65,0.00,,,0.00,0.000000,,2013-08-31 11:52:00,
2013-08-31 05:02:00,87.0,74.0,-100.00,South,174,0.0,0.0,65,0.00,,,0.00,0.000000,,2013-08-31 12:02:00,
2013-08-31 05:11:00,87.0,74.0,-100.00,South,174,0.0,0.0,65,0.00,,,0.00,0.000000,,2013-08-31 12:11:00,
2013-08-31 05:21:00,87.0,74.0,-100.00,South,174,0.0,0.0,65,0.00,,,0.00,0.000000,,2013-08-31 12:21:00,
2013-08-31 05:52:00,85.0,75.0,-100.00,North,4,0.0,5.0,73,0.00,,,0.00,0.000000,,2013-08-31 12:52:00,
2013-08-31 06:01:00,85.0,75.0,-100.00,North,4,0.0,5.0,73,0.00,,,0.00,0.000000,,2013-08-31 13:01:00,
2013-08-31 06:11:00,85.0,75.0,-100.00,North,4,0.0,5.0,73,0.00,,,0.00,0.000000,,2013-08-31 13:11:00,
2013-08-31 06:22:00,85.0,75.0,-100.00,North,4,0.0,5.0,73,0.00,,,0.00,0.000000,,2013-08-31 13:22:00,
2013-08-31 06:52:00,85.0,76.0,-100.00,ESE,120,0.0,2.0,74,0.00,,,0.00,0.000000,,2013-08-31 13:52:00,
2013-08-31 07:02:00,85.0,76.0,-100.00,ESE,120,0.0,2.0,74,0.00,,,0.00,0.000000,,2013-08-31 14:02:00,
2013-08-31 07:11:00,85.0,76.0,-100.00,ESE,120,0.0,2.0,74,0.00,,,0.00,0.000000,,2013-08-31 14:11:00,
2013-08-31 07:21:00,85.0,76.0,-100.00,ESE,120,0.0,2.0,74,0.00,,,0.00,0.000000,,2013-08-31 14:21:00,
2013-08-31 07:52:00,86.0,75.0,-100.00,NNE,29,0.0,3.0,70,0.00,,,0.00,44.000000,,2013-08-31 14:52:00,
2013-08-31 08:01:00,86.0,75.0,-100.00,NNE,29,0.0,3.0,70,0.00,,,0.00,44.000000,,2013-08-31 15:01:00,
2013-08-31 08:11:00,86.0,75.0,-100.00,NNE,29,0.0,3.0,70,0.00,,,0.00,44.000000,,2013-08-31 15:11:00,
2013-08-31 08:22:00,86.0,75.0,-100.00,NNE,29,0.0,3.0,70,0.00,,,0.00,44.000000,,2013-08-31 15:22:00,
2013-08-31 08:55:00,89.0,71.0,-100.00,SSE,150,0.0,1.0,55,0.00,,,0.00,178.000000,,2013-08-31 15:55:00,
2013-08-31 09:04:00,89.0,71.0,-100.00,SSE,150,0.0,1.0,55,0.00,,,0.00,178.000000,,2013-08-31 16:04:00,
2013-08-31 09:13:00,89.0,71.0,-100.00,SSE,150,0.0,1.0,55,0.00,,,0.00,178.000000,,2013-08-31 16:13:00,
2013-08-31 09:25:00,89.0,71.0,-100.00,SSE,150,0.0,1.0,55,0.00,,,0.00,178.000000,,2013-08-31 16:25:00,
2013-08-31 10:12:00,94.0,71.0,-100.00,South,174,1.0,4.0,48,0.00,,,0.00,341.000000,,2013-08-31 17:12:00,
2013-08-31 10:23:00,94.0,71.0,-100.00,South,174,1.0,4.0,48,0.00,,,0.00,341.000000,,2013-08-31 17:23:00,
2013-08-31 11:21:00,100.0,71.0,-100.00,South,175,2.0,7.0,40,0.00,,,0.00,780.000000,,2013-08-31 18:21:00,
2013-08-31 11:52:00,99.0,67.0,-100.00,North,4,2.0,8.0,36,0.00,,,0.00,756.000000,,2013-08-31 18:52:00,
2013-08-31 12:01:00,99.0,67.0,-100.00,North,4,2.0,8.0,36,0.00,,,0.00,756.000000,,2013-08-31 19:01:00,
2013-08-31 12:12:00,99.0,67.0,-100.00,North,4,2.0,8.0,36,0.00,,,0.00,756.000000,,2013-08-31 19:12:00,
2013-08-31 12:21:00,99.0,67.0,-100.00,North,4,2.0,8.0,36,0.00,,,0.00,756.000000,,2013-08-31 19:21:00,
2013-08-31 12:52:00,101.0,66.0,-100.00,SSW,208,7.0,12.0,32,0.00,,,0.00,1110.000000,,2013-08-31 19:52:00,
2013-08-31 13:02:00,101.0,66.0,-100.00,SSW,208,7.0,12.0,32,0.00,,,0.00,1110.000000,,2013-08-31 20:02:00,
2013-08-31 13:12:00,101.0,66.0,-100.00,SSW,208,7.0,12.0,32,0.00,,,0.00,1110.000000,,2013-08-31 20:12:00,
2013-08-31 13:22:00,101.0,66.0,-100.00,SSW,208,7.0,12.0,32,0.00,,,0.00,1110.000000,,2013-08-31 20:22:00,
2013-08-31 13:52:00,103.0,66.0,-100.00,SSW,193,10.0,17.0,31,0.00,,,0.00,1233.000000,,2013-08-31 20:52:00,
2013-08-31 14:02:00,103.0,66.0,-100.00,SSW,193,10.0,17.0,31,0.00,,,0.00,1233.000000,,2013-08-31 21:02:00,
2013-08-31 14:12:00,103.0,66.0,-100.00,SSW,193,10.0,17.0,31,0.00,,,0.00,1233.000000,,2013-08-31 21:12:00,
2013-08-31 14:22:00,103.0,66.0,-100.00,SSW,193,10.0,17.0,31,0.00,,,0.00,1233.000000,,2013-08-31 21:22:00,
2013-08-31 14:54:00,103.0,65.0,-100.00,SW,220,5.0,16.0,30,0.00,,,0.00,1168.000000,,2013-08-31 21:54:00,
2013-08-31 15:04:00,103.0,65.0,-100.00,SW,220,5.0,16.0,30,0.00,,,0.00,1168.000000,,2013-08-31 22:04:00,
2013-08-31 15:13:00,103.0,65.0,-100.00,SW,220,5.0,16.0,30,0.00,,,0.00,1168.000000,,2013-08-31 22:13:00,
2013-08-31 15:23:00,103.0,65.0,-100.00,SW,220,5.0,16.0,30,0.00,,,0.00,1168.000000,,2013-08-31 22:23:00,
2013-08-31 15:53:00,103.0,65.0,-100.00,SW,236,5.0,15.0,29,0.00,,,0.00,766.000000,,2013-08-31 22:53:00,
2013-08-31 16:03:00,103.0,65.0,-100.00,SW,236,5.0,15.0,29,0.00,,,0.00,766.000000,,2013-08-31 23:03:00,
2013-08-31 16:12:00,103.0,65.0,-100.00,SW,236,5.0,15.0,29,0.00,,,0.00,766.000000,,2013-08-31 23:12:00,
2013-08-31 16:22:00,103.0,65.0,-100.00,SW,236,5.0,15.0,29,0.00,,,0.00,766.000000,,2013-08-31 23:22:00,
2013-08-31 16:52:00,105.0,66.0,-100.00,South,185,6.0,16.0,29,0.00,,,0.00,670.000000,,2013-08-31 23:52:00,
2013-08-31 17:01:00,105.0,66.0,-100.00,South,185,6.0,16.0,29,0.00,,,0.00,670.000000,,2013-09-01 00:01:00,
2013-08-31 17:11:00,105.0,66.0,-100.00,South,185,6.0,16.0,29,0.00,,,0.00,670.000000,,2013-09-01 00:11:00,
2013-08-31 17:21:00,105.0,66.0,-100.00,South,185,6.0,16.0,29,0.00,,,0.00,670.000000,,2013-09-01 00:21:00,
2013-08-31 17:52:00,102.0,66.0,-100.00,SSE,164,6.0,14.0,31,0.00,,,0.00,439.000000,,2013-09-01 00:52:00,
2013-08-31 18:02:00,102.0,66.0,-100.00,SSE,164,6.0,14.0,31,0.00,,,0.00,439.000000,,2013-09-01 01:02:00,
2013-08-31 18:11:00,102.0,66.0,-100.00,SSE,164,6.0,14.0,31,0.00,,,0.00,439.000000,,2013-09-01 01:11:00,
2013-08-31 18:21:00,102.0,66.0,-100.00,SSE,164,6.0,14.0,31,0.00,,,0.00,439.000000,,2013-09-01 01:21:00,
2013-08-31 18:52:00,102.0,66.0,-100.00,SW,219,7.0,14.0,31,0.00,,,0.00,127.000000,,2013-09-01 01:52:00,
2013-08-31 19:02:00,102.0,66.0,-100.00,SW,219,7.0,14.0,31,0.00,,,0.00,127.000000,,2013-09-01 02:02:00,
2013-08-31 19:12:00,102.0,66.0,-100.00,SW,219,7.0,14.0,31,0.00,,,0.00,127.000000,,2013-09-01 02:12:00,
2013-08-31 19:22:00,102.0,66.0,-100.00,SW,219,7.0,14.0,31,0.00,,,0.00,127.000000,,2013-09-01 02:22:00,
2013-08-31 19:53:00,98.0,64.0,-100.00,SSW,204,10.0,17.0,33,0.00,,,0.00,11.000000,,2013-09-01 02:53:00,
2013-08-31 20:02:00,98.0,64.0,-100.00,SSW,204,10.0,17.0,33,0.00,,,0.00,11.000000,,2013-09-01 03:02:00,
2013-08-31 20:12:00,98.0,64.0,-100.00,SSW,204,10.0,17.0,33,0.00,,,0.00,11.000000,,2013-09-01 03:12:00,
2013-08-31 20:22:00,98.0,64.0,-100.00,SSW,204,10.0,17.0,33,0.00,,,0.00,11.000000,,2013-09-01 03:22:00,
2013-08-31 20:54:00,93.0,67.0,-100.00,WNW,283,13.0,26.0,43,0.00,,,0.00,0.000000,,2013-09-01 03:54:00,
2013-08-31 21:03:00,-999.0,-99.9,-100.00,WNW,283,13.0,26.0,-999,-99.99,,,-99.99,0.000000,,2013-09-01 04:03:00,
2013-08-31 21:14:00,93.0,67.0,-100.00,WNW,283,13.0,26.0,43,0.00,,,0.00,0.000000,,2013-09-01 04:14:00,
2013-08-31 21:24:00,93.0,67.0,-100.00,WNW,283,13.0,26.0,43,0.00,,,0.00,0.000000,,2013-09-01 04:24:00,
2013-08-31 21:54:00,92.0,66.0,-100.00,WNW,297,6.0,22.0,42,0.00,,,0.00,0.000000,,2013-09-01 04:54:00,
2013-08-31 22:03:00,92.0,66.0,-100.00,WNW,297,6.0,22.0,42,0.00,,,0.00,0.000000,,2013-09-01 05:03:00,
2013-08-31 22:12:00,92.0,66.0,-100.00,WNW,297,6.0,22.0,42,0.00,,,0.00,0.000000,,2013-09-01 05:12:00,
2013-08-31 22:22:00,92.0,66.0,-100.00,WNW,297,6.0,22.0,42,0.00,,,0.00,0.000000,,2013-09-01 05:22:00,
2013-08-31 22:52:00,92.0,66.0,-100.00,NNE,31,5.0,13.0,43,0.00,,,0.00,0.000000,,2013-09-01 05:52:00,
2013-08-31 23:02:00,92.0,66.0,-100.00,NNE,31,5.0,13.0,43,0.00,,,0.00,0.000000,,2013-09-01 06:02:00,
2013-08-31 23:12:00,92.0,66.0,-100.00,NNE,31,5.0,13.0,43,0.00,,,0.00,0.000000,,2013-09-01 06:12:00,
2013-08-31 23:22:00,92.0,66.0,-100.00,NNE,31,5.0,13.0,43,0.00,,,0.00,0.000000,,2013-09-01 06:22:00,
2013-08-31 23:52:00,92.0,66.0,-100.00,NNE,30,0.0,6.0,43,0.00,,,0.00,0.000000,,2013-09-01 06:52:00,